Location: Chapel Hill
(35.9134°N, 79.0560°W)
Time: 00:08:10
(UTC-04:00)

Tiros 1 - Visible Passes

Search period start: 18 July 2025 00:00
Search period end: 28 July 2025 00:00
Orbit: 619 x 651 km, 48.4° (Epoch: 17 July)

Date Brightness Start Highest point End Pass type
(mag) Time Alt. Az. Time Alt. Az. Time Alt. Az.
18 Jul 9.1 01:16:42 10° NW 01:19:08 26° NNW 01:19:08 26° NNW visible
18 Jul 9.8 22:14:35 10° NW 22:17:49 18° N 22:21:03 10° NE visible
18 Jul 9.1 23:57:11 10° NW 00:01:02 24° NNE 00:02:12 22° NE visible
19 Jul 9.7 01:38:48 10° NW 01:39:34 15° NW 01:39:34 15° NW visible
19 Jul 9.5 20:53:40 10° WNW 20:57:23 22° NNW 21:01:06 10° NE visible
19 Jul 9.6 22:37:20 10° NW 22:40:38 18° N 22:43:56 10° NE visible
20 Jul 8.7 00:19:14 10° NW 00:22:44 33° N 00:22:44 33° N visible
20 Jul 9.7 21:16:50 10° NW 21:20:07 18° N 21:23:25 10° NE visible
20 Jul 9.2 22:59:40 10° NW 23:03:23 22° NNE 23:05:59 15° NE visible
21 Jul 9.1 00:41:17 10° NW 00:43:21 25° NW 00:43:21 25° NW visible
21 Jul 9.6 21:39:43 10° NW 21:42:56 18° N 21:46:10 10° NE visible
21 Jul 8.5 23:21:45 10° NW 23:26:00 32° NNE 23:26:40 30° NE visible
22 Jul 9.8 01:03:31 10° WNW 01:04:03 13° WNW 01:04:03 13° WNW visible
22 Jul 9.3 22:02:08 10° NW 22:05:43 21° NNE 22:09:17 10° ENE visible
22 Jul 8.1 23:43:47 10° NW 23:47:25 45° NNW 23:47:25 45° NNW visible
23 Jul 8.8 22:24:15 10° NW 22:28:22 28° NNE 22:30:49 19° ENE visible
24 Jul 8.9 00:05:56 10° WNW 00:08:13 28° WNW 00:08:13 28° WNW visible
24 Jul 9.3 21:04:35 10° NW 21:08:02 19° N 21:11:28 10° ENE visible
24 Jul 7.8 22:46:17 10° NW 22:50:52 46° NNE 22:51:40 42° ENE visible
25 Jul 9.8 00:28:26 10° WNW 00:29:03 13° WNW 00:29:03 13° WNW visible
25 Jul 8.9 21:26:46 10° NW 21:30:44 25° NNE 21:34:41 10° ENE visible
25 Jul 7.4 23:08:23 10° NW 23:12:33 68° NW 23:12:33 68° NW visible
26 Jul 8.1 21:48:48 10° NW 21:53:16 39° NNE 21:56:06 20° E visible
26 Jul 8.6 23:30:46 10° WNW 23:33:30 30° W 23:33:30 30° W visible
27 Jul 7.2 22:10:51 10° NW 22:15:36 74° NE 22:17:05 43° ESE visible
